| time (UTC) | temp C | wind direction | speed KPH | gust KPH | rain 1hr cm | rain 24hr cm | rain mn cm | humidity % | barometer mb |
| 20260507213033 | 8 | 0 | 0.0 | 1.6 | 0.00 | 0.00 | 0.00 | 81 | 1016.4 |
| 20260507211537 | 8 | 0 | 0.0 | 3.2 | 0.00 | 0.00 | 0.00 | 80 | 1016.8 |
| 20260507210043 | 9 | 150 | 1.6 | 4.8 | 0.00 | 0.00 | 0.00 | 79 | 1016.8 |
| 20260507204536 | 9 | 153 | 3.2 | 3.2 | 0.00 | 0.00 | 0.00 | 77 | 1016.6 |
| 20260507203032 | 9 | 146 | 3.2 | 6.4 | 0.00 | 0.00 | 0.00 | 76 | 1016.5 |
| 20260507201532 | 10 | 152 | 1.6 | 3.2 | 0.00 | 0.00 | 0.00 | 75 | 1016.4 |
| 20260507200034 | 10 | 155 | 1.6 | 4.8 | 0.00 | 0.00 | 0.00 | 74 | 1016.2 |
| 20260507194546 | 10 | 150 | 3.2 | 4.8 | 0.00 | 0.00 | 0.00 | 72 | 1016.0 |
| 20260507193031 | 10 | 163 | 1.6 | 3.2 | 0.00 | 0.00 | 0.00 | 71 | 1015.9 |
| 20260507191532 | 11 | 178 | 1.6 | 3.2 | 0.00 | 0.00 | 0.00 | 71 | 1015.6 |
| 20260507190042 | 11 | 160 | 1.6 | 3.2 | 0.00 | 0.00 | 0.00 | 71 | 1015.5 |
| 20260507184541 | 12 | 152 | 1.6 | 6.4 | 0.00 | 0.00 | 0.00 | 70 | 1015.5 |
| 20260507183030 | 12 | 167 | 3.2 | 6.4 | 0.00 | 0.00 | 0.00 | 70 | 1015.6 |
| 20260507181531 | 12 | 156 | 3.2 | 8.0 | 0.00 | 0.00 | 0.00 | 70 | 1015.5 |
| 20260507180032 | 12 | 167 | 3.2 | 8.0 | 0.00 | 0.00 | 0.00 | 72 | 1015.5 |
| 20260507174535 | 12 | 192 | 4.8 | 11.3 | 0.00 | 0.00 | 0.00 | 73 | 1015.3 |
| 20260507173043 | 12 | 179 | 4.8 | 11.3 | 0.00 | 0.00 | 0.00 | 71 | 1015.4 |
| 20260507171530 | 12 | 151 | 4.8 | 9.7 | 0.00 | 0.00 | 0.00 | 71 | 1015.5 |
| 20260507170031 | 12 | 202 | 3.2 | 9.7 | 0.00 | 0.00 | 0.00 | 73 | 1015.5 |
| 20260507164544 | 12 | 164 | 3.2 | 9.7 | 0.00 | 0.00 | 0.00 | 73 | 1015.5 |
| 20260507163031 | 12 | 143 | 4.8 | 12.9 | 0.00 | 0.00 | 0.00 | 72 | 1015.5 |
| 20260507161546 | 12 | 203 | 3.2 | 11.3 | 0.00 | 0.00 | 0.00 | 72 | 1015.5 |
| 20260507160030 | 12 | 162 | 4.8 | 14.5 | 0.00 | 0.00 | 0.00 | 72 | 1015.6 |
| 20260507154532 | 12 | 200 | 6.4 | 12.9 | 0.00 | 0.00 | 0.00 | 71 | 1015.6 |
| 20260507153036 | 13 | 157 | 3.2 | 8.0 | 0.00 | 0.00 | 0.00 | 69 | 1015.8 |
| 20260507151536 | 13 | 116 | 4.8 | 12.9 | 0.00 | 0.00 | 0.00 | 68 | 1015.7 |
| 20260507150036 | 13 | 193 | 3.2 | 16.1 | 0.00 | 0.00 | 0.00 | 63 | 1015.6 |
| 20260507144536 | 13 | 152 | 4.8 | 14.5 | 0.00 | 0.00 | 0.00 | 64 | 1015.8 |
| 20260507143036 | 13 | 161 | 8.0 | 12.9 | 0.00 | 0.00 | 0.00 | 67 | 1015.8 |
| 20260507141534 | 13 | 202 | 4.8 | 9.7 | 0.00 | 0.00 | 0.00 | 68 | 1015.8 |
| 20260507140030 | 13 | 180 | 4.8 | 9.7 | 0.00 | 0.00 | 0.00 | 71 | 1015.8 |
| 20260507134531 | 12 | 203 | 4.8 | 9.7 | 0.00 | 0.00 | 0.00 | 73 | 1015.9 |
| 20260507133031 | 12 | 189 | 6.4 | 11.3 | 0.00 | 0.00 | 0.00 | 73 | 1015.9 |
| 20260507131530 | 12 | 215 | 6.4 | 14.5 | 0.00 | 0.00 | 0.00 | 73 | 1016.0 |
| 20260507130038 | 13 | 198 | 6.4 | 11.3 | 0.00 | 0.00 | 0.00 | 71 | 1016.0 |
| 20260507124538 | 13 | 221 | 3.2 | 8.0 | 0.00 | 0.00 | 0.00 | 68 | 1016.0 |
| 20260507123032 | 13 | 214 | 1.6 | 4.8 | 0.00 | 0.00 | 0.00 | 60 | 1016.1 |
| 20260507121531 | 13 | 0 | 0.0 | 4.8 | 0.00 | 0.00 | 0.00 | 51 | 1016.0 |
| 20260507120032 | 14 | 342 | 1.6 | 8.0 | 0.00 | 0.00 | 0.00 | 50 | 1016.0 |
| 20260507114554 | 15 | 119 | 0.0 | 6.4 | 0.00 | 0.00 | 0.00 | 50 | 1016.0 |
| 20260507113057 | 13 | 287 | 0.0 | 3.2 | 0.00 | 0.00 | 0.00 | 55 | 1016.1 |
| 20260507111538 | 13 | 174 | 0.0 | 1.6 | 0.00 | 0.00 | 0.00 | 51 | 1016.0 |
| 20260507110032 | 13 | 21 | 0.0 | 8.0 | 0.00 | 0.00 | 0.00 | 54 | 1016.2 |
| 20260507104539 | 13 | 279 | 0.0 | 4.8 | 0.00 | 0.00 | 0.00 | 55 | 1016.2 |
| 20260507103031 | 14 | 232 | 0.0 | 3.2 | 0.00 | 0.00 | 0.00 | 55 | 1016.2 |
| 20260507101532 | 13 | 0 | 0.0 | 3.2 | 0.00 | 0.00 | 0.00 | 58 | 1016.3 |
| 20260507100030 | 12 | 218 | 0.0 | 4.8 | 0.00 | 0.00 | 0.00 | 61 | 1016.3 |
| 20260507094533 | 13 | 214 | 0.0 | 4.8 | 0.00 | 0.00 | 0.00 | 66 | 1016.3 |
| 20260507093034 | 12 | 146 | 3.2 | 6.4 | 0.00 | 0.00 | 0.00 | 65 | 1016.2 |
| 20260507091536 | 12 | 205 | 1.6 | 11.3 | 0.00 | 0.00 | 0.00 | 67 | 1016.3 |
| 20260507090032 | 12 | 120 | 1.6 | 8.0 | 0.00 | 0.00 | 0.00 | 71 | 1016.3 |
| 20260507084540 | 12 | 0 | 0.0 | 6.4 | 0.00 | 0.00 | 0.00 | 74 | 1016.3 |
| 20260507083030 | 11 | 0 | 1.6 | 4.8 | 0.00 | 0.00 | 0.00 | 76 | 1016.3 |
| 20260507081536 | 11 | 0 | 0.0 | 4.8 | 0.00 | 0.00 | 0.00 | 80 | 1016.4 |
| 20260507080030 | 10 | 115 | 0.0 | 6.4 | 0.00 | 0.00 | 0.00 | 83 | 1016.4 |
| 20260507074532 | 10 | 0 | 1.6 | 4.8 | 0.00 | 0.00 | 0.00 | 85 | 1016.2 |
| 20260507073034 | 9 | 0 | 0.0 | 4.8 | 0.00 | 0.00 | 0.00 | 87 | 1016.1 |
| 20260507071530 | 8 | 0 | 0.0 | 3.2 | 0.00 | 0.00 | 0.00 | 88 | 1016.2 |
| 20260507070030 | 8 | 0 | 0.0 | 3.2 | 0.00 | 0.00 | 0.00 | 90 | 1016.1 |
| 20260507064534 | 7 | 0 | 0.0 | 1.6 | 0.00 | 0.00 | 0.00 | 91 | 1016.1 |
| 20260507063029 | 7 | 0 | 0.0 | 4.8 | 0.00 | 0.00 | 0.00 | 92 | 1016.1 |
| 20260507061531 | 6 | 0 | 0.0 | 0.0 | 0.00 | 0.00 | 0.00 | 92 | 1016.0 |
| 20260507060033 | 5 | 0 | 0.0 | 0.0 | 0.00 | 0.00 | 0.00 | 92 | 1016.0 |
| 20260507054531 | 4 | 0 | 0.0 | 0.0 | 0.00 | 0.00 | 0.00 | 92 | 1016.0 |
| 20260507053031 | 3 | 0 | 0.0 | 0.0 | 0.00 | 0.00 | 0.00 | 93 | 1015.8 |
| 20260507051533 | 3 | 0 | 0.0 | 0.0 | 0.00 | 0.00 | 0.00 | 92 | 1015.8 |
| 20260507050031 | 2 | 0 | 0.0 | 0.0 | 0.00 | 0.00 | 0.00 | 93 | 1015.7 |
| 20260507044532 | 2 | 0 | 0.0 | 0.0 | 0.00 | 0.00 | 0.00 | 93 | 1015.6 |
| 20260507043038 | 2 | 0 | 0.0 | 0.0 | 0.00 | 0.00 | 0.00 | 94 | 1015.6 |
| 20260507041530 | 2 | 0 | 0.0 | 0.0 | 0.00 | 0.00 | 0.00 | 92 | 1015.6 |
| 20260507040032 | 2 | 0 | 0.0 | 0.0 | 0.00 | 0.00 | 0.00 | 92 | 1015.7 |
| 20260507034535 | 3 | 0 | 0.0 | 0.0 | 0.00 | 0.00 | 0.00 | 93 | 1015.7 |
| 20260507033034 | 3 | 0 | 0.0 | 0.0 | 0.00 | 0.00 | 0.00 | 93 | 1015.7 |
| 20260507031529 | 2 | 0 | 0.0 | 0.0 | 0.00 | 0.00 | 0.00 | 92 | 1015.7 |
| 20260507030030 | 2 | 0 | 0.0 | 0.0 | 0.00 | 0.00 | 0.00 | 90 | 1015.8 |
| 20260507024532 | 3 | 0 | 0.0 | 0.0 | 0.00 | 0.00 | 0.00 | 90 | 1015.5 |
| 20260507023030 | 3 | 0 | 0.0 | 0.0 | 0.00 | 0.00 | 0.00 | 91 | 1015.5 |
| 20260507021530 | 4 | 0 | 0.0 | 0.0 | 0.00 | 0.00 | 0.00 | 90 | 1015.5 |
| 20260507020045 | 4 | 0 | 0.0 | 0.0 | 0.00 | 0.00 | 0.00 | 90 | 1015.4 |
| 20260507014534 | 4 | 0 | 0.0 | 0.0 | 0.00 | 0.00 | 0.00 | 89 | 1015.4 |
| 20260507013029 | 5 | 0 | 0.0 | 0.0 | 0.00 | 0.00 | 0.00 | 89 | 1015.4 |
| 20260507011541 | 4 | 0 | 0.0 | 0.0 | 0.00 | 0.00 | 0.00 | 89 | 1015.4 |
| 20260507010034 | 5 | 0 | 0.0 | 0.0 | 0.00 | 0.00 | 0.00 | 88 | 1015.4 |
| 20260507004531 | 5 | 0 | 0.0 | 0.0 | 0.00 | 0.00 | 0.00 | 88 | 1015.4 |
| 20260507003030 | 5 | 0 | 0.0 | 0.0 | 0.00 | 0.00 | 0.00 | 87 | 1015.4 |
| 20260507001602 | 5 | 0 | 0.0 | 0.0 | 0.00 | 0.00 | 0.00 | 87 | 1015.4 |
| 20260507000040 | 4 | 0 | 0.0 | 0.0 | 0.00 | 0.00 | 0.00 | 84 | 1015.4 |
| 20260506234531 | 5 | 0 | 0.0 | 0.0 | 0.00 | 0.00 | 0.00 | 83 | 1015.4 |
| 20260506233030 | 6 | 0 | 0.0 | 0.0 | 0.00 | 0.00 | 0.00 | 83 | 1015.4 |
| 20260506231531 | 5 | 0 | 0.0 | 0.0 | 0.00 | 0.00 | 0.00 | 82 | 1015.2 |
| 20260506230049 | 6 | 0 | 0.0 | 0.0 | 0.00 | 0.00 | 0.00 | 81 | 1015.3 |
| 20260506224530 | 6 | 0 | 0.0 | 0.0 | 0.00 | 0.00 | 0.00 | 79 | 1015.2 |
| 20260506223032 | 7 | 0 | 0.0 | 0.0 | 0.00 | 0.00 | 0.00 | 77 | 1015.1 |
| 20260506221530 | 7 | 0 | 0.0 | 0.0 | 0.00 | 0.00 | 0.00 | 76 | 1015.1 |
| 20260506220035 | 7 | 0 | 0.0 | 1.6 | 0.00 | 0.00 | 0.00 | 76 | 1014.9 |
| 20260506214529 | 7 | 0 | 0.0 | 0.0 | 0.00 | 0.00 | 0.00 | 75 | 1014.9 |